Snowfall_Accumulation
0.0 0.0 0.0 0.0 0.0 0.0 0.0 0.0 0.0 0.0 0.0 0.0 0.0 0.0 0.0 0.0 0.0 0.0 0.0 0.0 0.0 0.0 0.0 0.0 0.0 0.0 0.0 0.0 0.0 0.0 0.0 0.0 0.0 0.0 0.0 0.0 0.0 0.0
0.0 0.0 0.0 0.0 0.0 0.0 0.0 0.0 0.0 0.0 0.0 0.0 0.1 0.0 0.0 0.0 0.0 0.0 0.0 0.0 0.0 0.0 0.0 0.0 0.0 0.0 0.0 0.0 0.0 0.0 0.0 0.0 0.0 0.0 0.0 0.0 0.0 0.0
0.0 0.0 0.0 0.0 0.0 0.0 0.0 0.1 0.1 0.0 0.0 1.3 0.7 0.0 0.0 0.0 0.0 0.0 0.0 0.0 0.0 0.0 0.0 0.0 0.0 0.0 0.0 0.0 0.0 0.0 0.0 0.0 0.0 0.0 0.0 0.0 0.0 0.0
0.0 0.0 0.0 0.0 0.0 0.5 0.0 0.2 0.1 1.1 0.9 0.4 0.0 0.0 0.0 0.0 0.0 0.0 0.0 0.0 0.0 0.0 0.0 0.0 0.0 0.0 0.0 0.0 0.0 0.0 0.0 0.0 0.0 0.0 0.0 0.0 0.0 0.0
0.0 0.0 0.0 0.0 0.0 0.4 0.2 0.1 0.6 0.1 0.1 0.2 0.0 0.0 0.0 0.0 0.0 0.0 0.0 0.0 0.0 0.0 0.0 0.0 0.0 0.0 0.0 0.0 0.0 0.0 0.0 0.0 0.0 0.0 0.0 0.0 0.0 0.0
0.0 0.0 0.4 1.0 0.0 0.5 0.6 0.3 0.1 0.1 0.1 0.1 0.0 1.1 0.2 0.1 0.2 0.1 0.0 0.0 0.0 0.0 0.0 0.0 0.0 0.0 0.0 0.0 0.0 0.0 0.0 0.0 0.0 0.0 0.0 0.0 0.0 0.0
1.0 1.1 1.0 0.5 0.0 0.0 0.0 0.0 0.1 0.1 1.3 3.4 2.3 1.3 1.4 0.0 0.0 0.0 0.0 0.0 0.1 0.0 0.0 0.0 0.0 0.0 0.0 0.0 0.0 0.0 0.0 0.0 0.0 0.0 0.0 0.0 0.0 0.0
2.1 1.2 1.5 0.9 0.2 0.0 0.0 0.0 0.0 0.8 3.1 4.5 4.6 0.8 0.0 0.0 0.0 0.1 1.2 1.4 1.8 0.0 0.1 0.1 0.0 0.0 0.0 0.0 0.0 0.0 0.0 0.0 0.0 0.0 0.0 0.0 0.0 0.0
1.5 1.2 0.4 0.2 0.2 0.0 0.0 0.0 0.3 0.3 0.3 0.7 0.3 0.1 0.2 0.0 2.0 2.8 1.6 3.2 2.3 0.0 0.1 0.4 0.0 0.0 0.0 0.0 0.0 0.0 0.0 0.0 0.0 0.0 0.0 0.0 0.0 0.0
0.0 0.1 0.1 0.1 0.0 0.1 0.2 1.6 0.4 0.2 0.0 0.0 0.0 0.1 0.6 0.2 0.5 1.3 2.8 1.8 0.3 0.0 0.1 2.2 0.0 0.1 0.0 0.0 0.0 0.0 0.0 0.0 0.0 0.0 0.0 0.0 0.0 0.0
0.0 0.0 0.1 0.0 0.0 0.0 1.3 1.5 0.2 0.0 0.0 0.0 0.2 0.0 0.0 0.0 0.0 2.1 2.8 3.8 2.5 0.2 0.0 0.5 0.2 0.2 0.1 0.0 0.0 0.0 0.0 0.0 0.0 0.0 0.0 0.0 0.0 0.0
0.1 0.0 0.0 0.0 0.0 0.3 0.2 0.1 0.5 0.0 1.4 0.6 0.0 0.0 0.0 0.0 0.0 0.2 5.2 14.0 6.5 5.0 0.0 5.6 2.0 1.5 6.6 1.5 1.5 1.0 0.0 0.0 0.0 0.0 0.0 0.0 0.0 0.1
0.5 0.1 0.0 0.1 0.5 0.1 0.0 0.0 0.1 0.2 0.2 0.1 0.0 0.0 0.0 0.0 0.1 0.4 2.0 10.4 16.4 10.6 0.1 10.3 13.5 1.6 10.7 5.4 3.5 3.3 2.2 0.1 0.2 0.0 0.0 0.1 0.1 0.2
0.4 0.1 0.3 0.6 0.0 0.0 0.0 0.1 0.2 0.1 0.0 0.1 0.2 0.2 0.2 0.3 0.2 0.2 0.3 1.9 3.8 10.0 3.0 5.1 24.8 12.3 18.0 12.6 5.7 5.8 2.8 3.1 2.4 1.4 0.6 0.4 0.3 0.3
0.1 0.6 0.4 0.1 0.1 0.0 0.1 0.2 0.3 0.4 1.2 2.7 2.1 1.4 1.8 1.3 2.4 4.3 5.7 6.1 7.2 8.6 8.6 7.6 12.6 13.1 16.3 17.6 11.3 6.5 8.1 6.2 4.2 6.2 3.8 2.0 2.1 1.2
0.9 0.6 0.0 0.0 0.0 0.1 0.0 0.0 0.2 0.6 3.4 6.2 5.3 3.8 4.4 5.7 6.5 7.6 12.5 10.4 12.2 9.8 7.7 7.3 8.9 11.2 13.4 8.1 12.5 10.5 7.3 13.5 9.0 8.0 7.5 3.4 1.3 0.6
0.4 0.1 0.3 0.8 0.6 0.1 0.2 0.2 0.2 0.8 3.6 3.7 5.3 5.4 5.0 7.7 8.4 9.7 14.4 13.8 14.6 10.9 8.3 7.0 7.4 5.7 5.5 7.7 14.2 9.0 11.8 10.5 9.2 12.1 9.8 6.2 5.7 3.1
0.7 1.1 1.0 0.8 1.1 1.2 1.4 1.9 2.0 2.6 4.8 7.4 8.1 8.3 10.5 12.3 14.7 15.9 15.8 16.3 15.7 10.4 11.5 8.4 8.7 9.6 10.2 6.4 8.2 14.0 11.5 13.5 14.3 14.4 11.2 9.1 8.0 5.5
1.0 1.2 1.3 1.5 2.0 2.0 2.4 4.0 5.5 5.0 7.9 11.5 12.3 12.2 14.2 16.6 17.4 17.3 14.8 14.1 12.6 9.7 7.2 7.0 11.2 16.7 22.9 12.5 8.3 6.9 16.8 13.7 11.4 12.4 12.7 9.9 10.3 5.8
0.9 3.0 2.6 2.9 3.5 4.6 5.5 8.2 10.2 10.6 9.9 11.3 13.3 16.4 18.7 22.8 21.5 18.3 14.0 12.9 11.9 8.6 8.9 6.9 7.8 12.2 26.2 23.3 21.2 14.3 8.1 13.9 12.8 13.6 10.7 8.0 6.2 0.1
2.6 4.5 4.4 3.8 5.3 6.0 6.7 9.5 12.3 15.7 18.2 20.3 17.6 20.1 19.9 24.4 19.8 11.9 10.6 6.7 10.1 12.9 14.1 6.4 5.5 4.3 10.3 15.3 21.0 12.0 12.5 6.7 6.6 16.9 14.5 15.1 11.0 9.3
3.8 4.5 4.5 5.1 5.5 6.9 9.3 12.9 17.6 18.4 20.7 17.8 20.7 21.0 19.1 18.8 17.7 13.0 10.9 12.9 11.0 10.8 10.9 8.2 9.4 11.8 13.8 17.8 15.6 10.7 10.7 8.8 5.3 4.8 4.5 8.4 21.0 27.0
5.1 4.3 5.0 5.8 5.9 7.9 10.8 17.4 20.2 20.8 20.3 22.1 20.8 18.8 16.6 15.9 8.4 9.7 10.5 9.8 11.2 14.4 11.7 12.7 11.5 10.3 11.0 12.5 14.0 13.4 10.1 10.5 8.0 6.9 8.1 2.9 3.5 4.5